Weather in Averyanovka

Russia / Republic of Dagestan     43˚50′42″N   46˚45′11″E
temp.,
°C
wind,
m/s
gust,
m/s
humid.,
%
clouds,
%
prec.,
mm/h
press.,
hPa
HPBL,
m
17 january, sun
sun1700:00+3˚ene5881100 0.0 1016427
03:00+3˚ene61085100 0.1 1013470
06:00+3˚ene61185100 0.3 1011487
09:00+3˚ene71283100 0.6 1009524
12:00+4˚ene71185100 0.3 1006535
15:00+4˚ene71187100 0.3 1005451
18:00+4˚ene5984100 0.0 1005439
21:00+3˚ne4785100 0.0 1004354
18 january, mon
mon1800:00+2˚nne3690100 0.0 1003237
03:00+1˚nne3591100 0.0 1002266
06:00nw5890100 0.0 1002285
09:00+1˚nw6983100 0.0 1006419
12:00+2˚wnw81272100 0.0 1008670
15:00+4˚wnw91264100 0.0 10101008
18:00+2˚wnw71262100 0.0 10131001
21:00wnw7116988 0.0 1015687
19 january, tue
tue1900:00−2˚wnw6107052 0.0 1016638
03:00−3˚wnw477175 0.0 1017610
06:00−3˚nw4775100 0.1 1019733
09:00−2˚nw4764100 0.1 1020696
12:00−1˚nw4554100 0.0 1019702
15:00−1˚nnw1151100 0.0 1018590
18:00−3˚sw1191100 0.2 1019139
21:00−3˚nne2395100 1.2 1020177
20 january, wed
wed2000:00−3˚e2393100 0.5 1020161
03:00−3˚se2391100 0.5 1021101
06:00−4˚sse129588 0.0 102122
09:00−2˚n348857 0.0 1023189
12:00+1˚n3463100 0.1 1023762
15:00nne3468100 0.1 1024724
18:00−3˚n1195100 0.1 102725
21:00−3˚wsw239493 0.1 102842
21 january, thu
thu2100:00−4˚n239194 0.1 1029178
03:00−4˚nnw249097 0.1 1030297
06:00−5˚nnw258666 0.0 1031264
09:00−4˚nw487177 0.0 1033797
12:00−2˚nw695556 0.0 1033972
15:00−1˚nw465428 0.0 1033898
18:00−4˚n23650 0.0 103542
21:00−5˚se22640 0.0 103623